1498928400.43,12961,18.06,73654.5,3.31,-16.79,-16.09,0,*76
1498928401.69,12962,18.06,73656.5,3.33,-16.45,-16.13,0,*73
1498928402.97,12963,18.06,73652.3,3.33,-16.17,-16.31,0,*75
1498928404.19,12964,18.06,73652.8,3.33,-15.99,-16.41,0,*70
1498928405.4,12965,18.06,73648.0,3.35,-15.75,-16.79,0,*7E
1498928406.65,12966,18.06,73654.3,3.35,-15.81,-17.11,0,*79
1498928407.93,12967,18.06,73652.5,3.37,-15.89,-17.59,0,*7E
1498928409.19,12968,18.06,73654.0,3.39,-15.89,-17.97,0,*7D
1498928410.44,12969,18.06,73652.8,3.41,-15.89,-18.17,0,*74
1498928411.64,12970,18.06,73654.5,3.43,-16.03,-18.69,0,*76
1498928412.87,12971,18.06,73652.5,3.43,-16.59,-19.31,0,*74
1498928414.07,12972,18.06,73650.5,3.43,-16.79,-19.91,0,*7F
1498928415.3,12973,18.06,73648.8,3.45,-16.79,-20.09,0,*73
1498928416.56,12974,18.06,73646.0,3.45,-17.17,-20.63,0,*71
1498928417.8,12975,18.06,73650.3,3.51,-17.11,-20.89,0,*77
1498928419.02,12976,18.06,73654.3,3.49,-17.31,-21.09,0,*76
1498928420.28,12977,18.06,73654.0,3.51,-17.55,-21.23,0,*74
1498928421.51,12978,18.06,73656.5,3.51,-17.55,-21.17,0,*7C
1498928422.74,12979,18.06,73652.0,3.51,-17.69,-21.33,0,*74
1498928423.97,12980,18.06,73654.5,3.51,-18.25,-21.67,0,*74
1498928425.23,12981,18.06,73656.5,3.53,-18.41,-21.67,0,*75
1498928426.45,12982,18.06,73652.5,3.55,-18.35,-21.43,0,*75
1498928427.7,12983,18.06,73646.8,3.53,-18.73,-21.57,0,*75
1498928428.96,12984,18.06,73642.8,3.57,-18.99,-21.53,0,*76
1498928430.22,12985,18.06,73642.8,3.57,-19.31,-21.63,0,*77
1498928431.47,12986,18.06,73638.5,3.57,-19.41,-21.63,0,*73
1498928432.75,12987,18.06,73632.3,3.57,-19.61,-21.53,0,*73
1498928433.98,12988,18.06,73638.8,3.59,-19.57,-21.39,0,*7B
1498928435.23,12989,18.06,73642.5,3.57,-19.81,-21.43,0,*72
1498928436.43,12990,18.06,73646.0,3.59,-19.75,-21.13,0,*7A
1498928437.68,12991,18.06,73644.5,3.61,-19.65,-20.93,0,*78
1498928438.92,12992,18.06,73646.5,3.61,-19.81,-20.93,0,*71
1498928440.17,12993,18.06,73646.3,3.61,-19.85,-20.93,0,*74
1498928441.42,12994,18.06,73642.5,3.61,-19.95,-20.79,0,*76
1498928442.64,12995,18.06,73644.5,3.63,-19.81,-20.63,0,*7B
1498928443.85,12996,18.06,73646.3,3.63,-19.71,-20.43,0,*75
1498928445.09,12997,18.06,73640.5,3.63,-19.57,-20.25,0,*70
1498928446.29,12998,18.06,73640.8,3.63,-19.71,-20.29,0,*77
1498928447.52,12999,18.06,73644.0,3.71,-19.37,-19.99,0,*76
1498928448.75,13000,18.06,73646.3,3.67,-19.47,-20.09,0,*7D
1498928450.01,13001,18.06,73646.8,3.67,-19.91,-20.53,0,*78
1498928451.28,13002,18.06,73644.3,3.67,-19.61,-20.39,0,*78
1498928452.56,13003,18.06,73648.3,3.71,-19.57,-20.49,0,*7C
1498928453.84,13004,18.06,73646.8,3.71,-19.57,-20.79,0,*78
1498928455.09,13005,18.06,73646.8,3.71,-19.47,-20.79,0,*78
1498928456.32,13006,18.06,73646.0,3.71,-19.37,-20.69,0,*7D
1498928457.55,13007,18.06,73646.0,3.71,-19.37,-20.69,0,*7C
1498928458.76,13008,18.06,73646.8,3.73,-19.17,-20.63,0,*79
1498928459.99,13009,18.06,73644.8,3.75,-19.07,-20.63,0,*7F
1498928461.27,13010,18.06,73648.0,3.75,-18.89,-20.49,0,*78
1498928462.48,13011,18.06,73644.8,3.77,-18.99,-20.89,0,*76
1498928463.68,13012,18.06,73646.3,3.77,-19.17,-21.17,0,*74
1498928464.91,13013,18.06,73648.3,3.77,-19.31,-21.39,0,*7D
1498928466.14,13014,18.06,73648.5,3.77,-19.13,-21.33,0,*70
1498928467.4,13015,18.06,73648.0,3.79,-19.03,-21.27,0,*7B
1498928468.59,13016,18.06,73648.5,3.81,-19.07,-21.63,0,*7B
1498928469.87,13017,18.06,73648.3,3.83,-19.23,-21.87,0,*74
1498928471.09,13018,18.06,73650.5,3.81,-19.41,-22.07,0,*76
1498928472.32,13019,18.06,73658.0,3.83,-19.37,-22.03,0,*70
1498928473.57,13020,18.06,73654.5,3.83,-19.41,-22.11,0,*78
1498928474.8,13021,18.06,73654.3,3.85,-19.51,-22.17,0,*78
1498928476.04,13022,18.06,73656.3,3.85,-19.81,-22.31,0,*72
1498928477.25,13023,18.06,73654.5,3.85,-19.81,-22.37,0,*75
1498928478.52,13024,18.06,73654.0,3.83,-19.81,-22.47,0,*73
1498928479.77,13025,18.06,73654.3,3.85,-19.85,-22.47,0,*70
1498928481.05,13026,18.06,73654.8,3.83,-19.85,-22.47,0,*75
1498928482.31,13027,18.06,73654.8,3.87,-19.81,-22.31,0,*75
1498928483.58,13028,18.06,73650.5,3.87,-19.81,-22.31,0,*7A
1498928484.76,13029,18.06,73654.3,3.89,-20.05,-22.41,0,*74
1498928486.01,13030,18.06,73648.0,3.87,-20.05,-22.47,0,*74
1498928487.26,13031,18.06,73646.8,3.87,-20.59,-23.03,0,*7D
1498928488.49,13032,18.06,73650.3,3.89,-20.99,-23.39,0,*75
1498928489.73,13033,18.06,73656.0,3.87,-21.67,-24.05,0,*72
1498928490.98,13034,18.06,73656.5,3.87,-21.67,-24.05,0,*75
1498928492.18,13035,18.06,73654.3,3.85,-21.73,-24.05,0,*73
1498928493.43,13036,18.06,73658.3,3.83,-21.67,-24.05,0,*73
1498928494.67,13037,18.06,73656.0,3.85,-21.87,-24.11,0,*7F
1498928495.9,13038,18.06,73654.0,3.83,-21.73,-24.05,0,*78
1498928497.14,13039,18.06,73648.0,3.79,-21.83,-24.05,0,*73
1498928498.39,13040,18.06,73646.0,3.81,-21.87,-23.99,0,*7C
1498928499.64,13041,18.06,73646.0,3.79,-21.93,-23.99,0,*7F
1498928500.89,13042,18.06,73648.8,3.79,-21.83,-23.89,0,*7C
1498928502.16,13043,18.06,73654.8,3.79,-21.83,-23.85,0,*71
1498928503.4,13044,18.06,73650.5,3.75,-21.97,-24.05,0,*70
1498928504.63,13045,18.06,73648.5,3.77,-21.77,-23.85,0,*72
1498928505.87,13046,18.06,73650.5,3.75,-21.73,-23.95,0,*76
1498928507.09,13047,18.06,73648.3,3.75,-21.43,-23.75,0,*7A
1498928508.31,13048,18.06,73652.3,3.75,-21.43,-23.75,0,*75
1498928509.53,13049,18.06,73652.5,3.75,-21.43,-23.79,0,*78
1498928510.75,13050,18.06,73650.3,3.73,-21.43,-23.95,0,*74
1498928512.02,13051,18.06,73648.0,3.71,-21.33,-23.99,0,*7C
1498928513.29,13052,18.06,73658.3,3.71,-21.23,-24.11,0,*79
1498928514.54,13053,18.06,73666.0,3.71,-21.27,-24.31,0,*7E
1498928515.81,13054,18.06,73668.3,3.71,-21.27,-24.67,0,*7A
1498928517.06,13055,18.06,73660.3,3.67,-21.67,-25.19,0,*70
1498928518.32,13056,18.06,73658.0,3.71,-21.87,-25.61,0,*75
1498928519.59,13057,18.06,73652.5,3.65,-21.67,-25.55,0,*78
1498928520.82,13058,18.06,73652.0,3.65,-21.93,-25.81,0,*75
1498928522.06,13059,18.06,73652.0,3.65,-22.21,-26.03,0,*77
1498928523.32,13060,18.06,73656.5,3.63,-21.87,-25.75,0,*76
1498928524.56,13061,18.13,73654.8,3.61,-21.97,-25.91,0,*7E
1498928525.84,13062,18.06,73652.3,3.61,-21.97,-25.75,0,*77
1498928527.12,13063,18.06,73658.3,3.61,-21.87,-25.71,0,*73
1498928528.32,13064,18.06,73658.8,3.59,-21.93,-25.91,0,*74
1498928529.6,13065,18.06,73654.0,3.57,-22.21,-26.13,0,*78
1498928530.84,13066,18.06,73658.0,3.57,-22.11,-26.03,0,*79
1498928532.12,13067,18.06,73654.0,3.57,-22.21,-25.97,0,*75
1498928533.35,13068,18.06,73652.0,3.55,-22.41,-26.13,0,*71
1498928534.55,13069,18.06,73654.5,3.55,-22.41,-26.07,0,*75
1498928535.79,13070,18.13,73660.8,3.53,-22.41,-26.03,0,*7F
1498928537.04,13071,18.06,73658.3,3.53,-22.31,-25.87,0,*76
1498928538.3,13072,18.06,73660.5,3.53,-22.27,-25.75,0,*7F
1498928539.53,13073,18.06,73658.0,3.51,-22.47,-25.91,0,*70
1498928540.73,13074,18.06,73662.5,3.51,-22.41,-25.87,0,*76
1498928541.99,13075,18.06,73660.5,3.51,-22.31,-25.75,0,*7D
1498928543.21,13076,18.06,73666.3,3.49,-22.63,-25.91,0,*7A
1498928544.47,13077,18.06,73662.0,3.49,-22.37,-25.71,0,*74
1498928545.73,13078,18.06,73660.5,3.49,-22.63,-25.81,0,*75
1498928546.98,13079,18.06,73660.3,3.49,-22.73,-25.91,0,*74
1498928548.24,13080,18.06,73660.3,3.49,-22.83,-25.97,0,*7B
1498928549.44,13081,18.06,73660.5,3.43,-22.87,-26.03,0,*7A
1498928550.64,13082,18.06,73660.5,3.43,-22.87,-26.03,0,*79
1498928551.89,13083,18.06,73666.3,3.45,-22.73,-25.87,0,*7A
1498928553.12,13084,18.06,73664.3,3.43,-22.77,-25.87,0,*7F
1498928554.37,13085,18.06,73662.8,3.43,-23.19,-26.33,0,*7B
1498928555.59,13086,18.06,73656.8,3.39,-23.23,-26.49,0,*71
1498928556.85,13087,18.06,73654.8,3.39,-23.23,-26.33,0,*7D
1498928558.1,13088,18.13,73658.8,3.39,-23.23,-26.33,0,*72
1498928559.3,13089,18.06,73654.3,3.39,-23.09,-26.23,0,*7A
1498928560.5,13090,18.06,73652.5,3.39,-22.83,-25.91,0,*7B
1498928561.71,13091,18.06,73654.8,3.39,-22.97,-26.03,0,*77
1498928562.91,13092,18.06,73654.0,3.35,-22.83,-25.87,0,*72
1498928564.14,13093,18.06,73652.0,3.35,-22.77,-25.87,0,*78
1498928565.34,13094,18.13,73654.8,3.35,-22.83,-25.87,0,*74
1498928566.58,13095,18.13,73658.0,3.35,-22.77,-25.87,0,*7E
1498928567.81,13096,18.13,73654.0,3.35,-22.77,-25.87,0,*7D
1498928569.01,13097,18.13,73654.8,3.35,-22.67,-25.87,0,*7D
1498928570.22,13098,18.06,73658.3,3.35,-22.53,-25.87,0,*75
1498928571.45,13099,18.06,73654.3,3.35,-22.63,-25.75,0,*7A
1498928572.73,13100,18.06,73654.5,3.33,-22.73,-25.81,0,*77
1498928573.99,13101,18.06,73652.5,3.33,-22.57,-25.81,0,*70
1498928575.25,13102,18.06,73648.0,3.33,-22.67,-25.75,0,*7B
1498928576.5,13103,18.06,73652.8,3.31,-22.57,-25.97,0,*77
1498928577.73,13104,18.13,73648.3,3.31,-22.97,-26.03,0,*72
1498928578.97,13105,18.13,73648.5,3.31,-22.93,-26.03,0,*77
1498928580.23,13106,18.06,73648.3,3.29,-22.77,-25.97,0,*79
1498928581.48,13107,18.13,73650.5,3.29,-22.73,-25.97,0,*7C
1498928582.7,13108,18.13,73650.3,3.29,-22.63,-25.81,0,*75
1498928583.93,13109,18.13,73648.5,3.29,-22.73,-25.87,0,*73
1498928585.15,13110,18.06,73644.3,3.29,-22.63,-25.81,0,*7C
1498928586.37,13111,18.13,73646.5,3.27,-22.67,-25.87,0,*71
1498928587.59,13112,18.13,73650.5,3.27,-22.63,-25.87,0,*76
1498928588.81,13113,18.13,73648.3,3.27,-22.67,-25.91,0,*74
1498928590.03,13114,18.06,73654.3,3.27,-22.83,-25.91,0,*79
1498928591.22,13115,18.06,73658.0,3.25,-22.83,-25.91,0,*7A
1498928592.44,13116,18.13,73658.3,3.27,-22.67,-25.87,0,*76
1498928593.67,13117,18.13,73648.3,3.25,-23.03,-26.03,0,*79
1498928594.89,13118,18.06,73646.5,3.25,-23.03,-26.23,0,*74
1498928596.09,13119,18.06,73656.3,3.21,-22.97,-26.07,0,*7B
1498928597.34,13120,18.13,73658.3,3.21,-23.03,-26.17,0,*7C
1498928598.54,13121,18.13,73662.5,3.21,-22.87,-26.07,0,*71
1498928599.74,13122,18.13,73662.3,3.21,-22.97,-26.07,0,*73
1498928600.94,13123,18.13,73658.3,3.21,-22.87,-26.07,0,*73
1498928602.19,13124,18.13,73654.5,3.19,-22.87,-25.97,0,*75
1498928603.41,13125,18.06,73658.8,3.19,-22.87,-25.91,0,*72
1498928604.64,13126,18.13,73660.5,3.17,-22.57,-25.75,0,*78
1498928605.89,13127,18.06,73660.0,3.19,-22.67,-25.81,0,*7F
1498928607.14,13128,18.13,73658.0,3.19,-22.67,-25.75,0,*7B
1498928608.38,13129,18.13,73660.5,3.17,-22.73,-25.81,0,*7A
1498928609.61,13130,18.06,73660.8,3.17,-22.77,-25.87,0,*70
1498928610.81,13131,18.13,73660.0,3.17,-22.83,-25.91,0,*7D
1498928612.07,13132,18.13,73662.3,3.17,-22.77,-25.97,0,*73
1498928613.29,13133,18.13,73658.5,3.17,-22.77,-25.87,0,*73
1498928614.51,13134,18.13,73656.3,3.15,-22.83,-25.91,0,*7A
1498928615.71,13135,18.06,73650.3,3.13,-22.93,-25.91,0,*7C
1498928616.93,13136,18.06,73652.3,3.15,-22.83,-25.91,0,*78
1498928618.14,13137,18.13,73660.5,3.13,-22.93,-26.03,0,*76
1498928619.34,13138,18.13,73662.0,3.13,-22.83,-26.03,0,*78
1498928620.54,13139,18.13,73662.0,3.13,-22.83,-25.91,0,*71
1498928621.77,13140,18.13,73662.5,3.13,-22.77,-25.87,0,*73
1498928623.02,13141,18.06,73658.0,3.11,-22.83,-25.97,0,*7A
1498928624.27,13142,18.13,73656.3,3.11,-22.83,-25.81,0,*7E
1498928625.48,13143,18.06,73656.3,3.11,-22.83,-25.91,0,*7E
1498928626.74,13144,18.13,73660.3,3.11,-22.97,-25.97,0,*7A
1498928627.99,13145,18.13,73662.5,3.11,-22.97,-25.97,0,*7B
1498928629.2,13146,18.06,73656.3,3.09,-22.97,-26.07,0,*7B
1498928630.45,13147,18.13,73658.5,3.11,-22.97,-25.97,0,*79
1498928631.7,13148,18.06,73658.8,3.09,-23.03,-25.97,0,*73
1498928632.9,13149,18.13,73662.5,3.09,-22.87,-26.07,0,*75
1498928634.09,13150,18.13,73660.5,3.09,-22.87,-25.91,0,*71
1498928635.37,13151,18.13,73660.8,3.07,-22.77,-25.81,0,*70
1498928636.6,13152,18.13,73660.0,3.07,-22.93,-25.87,0,*7F
1498928637.85,13153,18.13,73660.0,3.07,-23.03,-26.03,0,*79
1498928639.11,13154,18.13,73662.5,3.07,-22.93,-25.97,0,*78
1498928640.39,13155,18.13,73660.3,3.07,-22.73,-25.97,0,*77
1498928641.65,13156,18.13,73664.3,3.05,-22.77,-25.81,0,*75
1498928642.85,13157,18.13,73666.3,3.05,-22.87,-25.87,0,*7D
1498928644.08,13158,18.06,73662.5,3.05,-22.87,-25.97,0,*73
1498928645.31,13159,18.06,73660.3,3.05,-22.87,-25.97,0,*72
1498928646.53,13160,18.13,73662.5,3.05,-22.87,-25.81,0,*7F
1498928647.75,13161,18.13,73666.8,3.01,-22.87,-25.97,0,*7D
1498928648.98,13162,18.06,73660.5,3.01,-23.03,-26.07,0,*79
1498928650.21,13163,18.13,73662.3,3.01,-22.97,-25.97,0,*7E
1498928651.45,13164,18.13,73660.5,2.97,-22.97,-26.07,0,*7D
1498928652.7,13165,18.13,73658.0,2.97,-23.13,-26.13,0,*74
1498928653.98,13166,18.13,73662.8,2.97,-23.03,-26.13,0,*76
1498928655.22,13167,18.13,73660.0,2.97,-22.97,-26.07,0,*7E
1498928656.48,13168,18.06,73656.3,2.97,-22.97,-25.97,0,*7B
1498928657.7,13169,18.13,73656.0,2.97,-22.87,-26.07,0,*71
1498928658.92,13170,18.06,73658.0,2.97,-22.87,-25.91,0,*75
1498928660.18,13171,18.06,73656.3,2.97,-22.87,-25.97,0,*72
1498928661.38,13172,18.06,73654.8,2.95,-22.93,-26.03,0,*78
1498928662.63,13173,18.13,73652.3,2.95,-23.03,-26.13,0,*70
1498928663.84,13174,18.13,73654.8,2.95,-22.93,-26.03,0,*7E
1498928665.07,13175,18.06,73654.8,2.95,-22.93,-25.97,0,*71
1498928666.3,13176,18.13,73658.3,2.95,-22.93,-25.97,0,*72
1498928667.5,13177,18.13,73654.5,2.95,-22.93,-25.87,0,*72
1498928668.7,13178,18.13,73652.8,2.91,-22.97,-25.91,0,*7A
1498928669.92,13179,18.13,73654.5,2.93,-22.87,-25.87,0,*7F
1498928671.2,13180,18.13,73654.0,2.93,-22.73,-25.71,0,*7B
1498928672.45,13181,18.13,73658.8,2.95,-22.73,-25.71,0,*7C
1498928673.72,13182,18.13,73654.0,2.93,-22.73,-25.71,0,*79
1498928675.0,13183,18.13,73654.5,2.93,-22.73,-25.71,0,*78
1498928676.25,13184,18.13,73652.5,2.93,-22.73,-25.65,0,*7A
1498928677.53,13185,18.13,73650.8,2.93,-22.77,-25.71,0,*7A
1498928678.78,13186,18.13,73650.3,2.93,-22.77,-25.87,0,*70
1498928680.06,13187,18.13,73652.5,2.93,-22.77,-25.81,0,*77
1498928681.32,13188,18.13,73654.3,2.91,-22.77,-25.71,0,*75
1498928682.57,13189,18.06,73648.3,2.89,-22.67,-25.81,0,*73
1498928683.79,13190,18.13,73652.0,2.89,-22.87,-25.91,0,*74
1498928685.02,13191,18.13,73652.5,2.89,-22.87,-25.91,0,*75
1498928686.25,13192,18.13,73654.0,2.91,-22.67,-25.75,0,*7B
1498928687.48,13193,18.13,73652.5,2.91,-22.77,-25.87,0,*76
1498928688.73,13194,18.13,73652.3,2.89,-22.83,-25.81,0,*75
1498928690.01,13195,18.06,73650.8,2.89,-22.73,-25.81,0,*7B
1498928691.23,13196,18.06,73652.0,2.89,-22.83,-25.91,0,*76
1498928692.48,13197,18.13,73654.3,2.89,-22.83,-25.81,0,*76
1498928693.71,13198,18.13,73654.3,2.89,-22.83,-25.91,0,*78
1498928694.99,13199,18.06,73656.3,2.89,-22.73,-25.81,0,*77
1498928696.24,13200,18.06,73656.5,2.89,-22.67,-25.75,0,*7A
1498928697.47,13201,18.13,73660.0,2.87,-22.73,-25.91,0,*7A
1498928698.71,13202,18.06,73656.3,2.87,-22.73,-25.81,0,*78
1498928700.0,13203,18.13,73656.8,2.85,-22.77,-25.81,0,*7F
1498928701.25,13204,18.13,73658.8,2.87,-22.73,-25.81,0,*7E
1498928702.48,13205,18.13,73654.3,2.87,-22.83,-25.75,0,*7B
1498928703.73,13206,18.06,73654.5,2.85,-22.77,-25.87,0,*7C
1498928704.99,13207,18.13,73654.3,2.85,-22.87,-25.97,0,*73
1498928706.25,13208,18.13,73650.8,2.85,-22.93,-25.97,0,*79
1498928707.51,13209,18.06,73654.3,2.85,-22.93,-25.97,0,*78
1498928708.77,13210,18.13,73658.3,2.85,-23.03,-26.03,0,*76
1498928709.97,13211,18.13,73656.0,2.83,-22.87,-26.03,0,*7C
1498928711.2,13212,18.13,73658.0,2.83,-23.03,-26.03,0,*72
1498928712.44,13213,18.06,73656.3,2.83,-22.93,-25.97,0,*75
1498928713.68,13214,18.13,73656.5,2.81,-22.83,-26.03,0,*7F
1498928714.9,13215,18.13,73658.5,2.81,-22.83,-25.87,0,*71
1498928716.13,13216,18.13,73660.3,2.81,-22.83,-25.91,0,*75
1498928717.36,13217,18.06,73656.5,2.81,-22.83,-25.87,0,*73
1498928718.59,13218,18.13,73662.5,2.81,-22.83,-25.91,0,*7B
1498928719.84,13219,18.13,73658.0,2.83,-22.73,-25.81,0,*76
1498928721.06,13220,18.13,73662.3,2.83,-22.63,-25.81,0,*7D
1498928722.32,13221,18.13,73660.0,2.83,-22.73,-25.81,0,*7D
1498928723.57,13222,18.06,73658.5,2.81,-22.77,-25.87,0,*7E
1498928724.77,13223,18.06,73658.3,2.83,-22.63,-25.87,0,*78
1498928726.03,13224,18.06,73656.0,2.81,-22.63,-25.75,0,*70
1498928727.23,13225,18.13,73656.5,2.79,-22.67,-25.87,0,*7F
1498928728.46,13226,18.13,73660.5,2.79,-22.67,-25.75,0,*71
1498928729.67,13227,18.06,73656.3,2.79,-22.63,-25.65,0,*75
1498928730.9,13228,18.13,73658.0,2.75,-22.67,-25.81,0,*78
1498928732.13,13229,18.13,73656.5,2.75,-22.67,-25.71,0,*76
1498928733.34,13230,18.06,73658.5,2.79,-22.63,-25.65,0,*73
1498928734.57,13231,18.13,73658.5,2.75,-22.67,-25.81,0,*70
1498928735.8,13232,18.13,73658.3,2.75,-22.67,-25.81,0,*73
1498928737.03,13233,18.06,73652.3,2.75,-22.67,-25.81,0,*72
1498928738.26,13234,18.13,73652.8,2.75,-22.67,-25.81,0,*75
1498928739.5,13235,18.06,73650.8,2.79,-22.53,-25.71,0,*70
1498928740.74,13236,18.13,73654.3,2.75,-22.57,-25.71,0,*7B
1498928742.0,13237,18.13,73654.5,2.75,-22.47,-25.55,0,*7D
1498928743.22,13238,18.13,73652.8,2.75,-22.53,-25.61,0,*70
1498928744.43,13239,18.13,73656.5,2.71,-22.57,-25.65,0,*75
1498928745.63,13240,18.13,73658.5,2.71,-22.63,-25.65,0,*7C
1498928746.88,13241,18.13,73658.3,2.73,-22.53,-25.49,0,*72
1498928748.12,13242,18.06,73654.0,2.73,-22.57,-25.49,0,*75
1498928749.33,13243,18.06,73652.3,2.71,-22.57,-25.49,0,*76
1498928750.59,13244,18.06,73656.0,2.73,-22.57,-25.45,0,*7F
1498928751.82,13245,18.13,73656.8,2.71,-22.57,-25.45,0,*7C
1498928753.05,13246,18.13,73656.8,2.71,-22.57,-25.45,0,*7F
1498928754.28,13247,18.06,73656.3,2.71,-22.53,-25.45,0,*7A
1498928755.52,13248,18.13,73662.3,2.73,-22.57,-25.35,0,*74
1498928756.73,13249,18.13,73666.5,2.71,-22.53,-25.35,0,*73
1498928757.96,13250,18.06,73658.5,2.71,-22.53,-25.29,0,*76
1498928759.19,13251,18.06,73660.0,2.71,-22.41,-25.29,0,*74
1498928760.39,13252,18.06,73662.0,2.71,-22.41,-25.19,0,*74
1498928761.62,13253,18.13,73666.0,2.73,-22.41,-25.13,0,*7D
1498928762.82,13254,18.13,73668.5,2.71,-22.41,-25.19,0,*72
1498928764.05,13255,18.13,73668.0,2.71,-22.37,-25.03,0,*79
1498928765.25,13256,18.13,73666.0,2.71,-22.57,-25.13,0,*7D
1498928766.48,13257,18.06,73658.0,2.71,-22.53,-25.03,0,*79
1498928767.72,13258,18.13,73656.3,2.67,-22.57,-25.09,0,*7F
1498928768.98,13259,18.13,73654.8,2.69,-22.57,-24.87,0,*77
1498928770.23,13260,18.13,73652.3,2.67,-22.57,-24.87,0,*73
1498928771.48,13261,18.13,73656.0,2.69,-22.41,-24.71,0,*72
1498928772.74,13262,18.06,73654.5,2.69,-22.47,-24.57,0,*73
1498928774.02,13263,18.06,73654.3,2.69,-22.47,-24.67,0,*71
1498928775.24,13264,18.13,73656.3,2.69,-22.41,-24.51,0,*75
1498928776.46,13265,18.13,73658.5,2.67,-22.41,-24.35,0,*78
1498928777.68,13266,18.13,73660.8,2.67,-22.41,-24.35,0,*7B
1498928778.9,13267,18.13,73662.8,2.67,-22.41,-24.35,0,*7A
1498928780.15,13268,18.06,73658.3,2.65,-22.47,-24.41,0,*72
1498928781.39,13269,18.06,73656.3,2.67,-22.41,-24.11,0,*72
1498928782.63,13270,18.13,73656.5,2.67,-22.41,-24.11,0,*7A
1498928783.87,13271,18.06,73658.8,2.67,-22.41,-24.11,0,*7B
1498928785.11,13272,18.13,73660.5,2.67,-22.41,-23.95,0,*73
1498928786.36,13273,18.13,73666.0,2.67,-22.41,-23.95,0,*72
1498928787.6,13274,18.06,73658.8,2.65,-22.47,-23.95,0,*71
1498928788.82,13275,18.06,73652.0,2.65,-22.37,-23.95,0,*77
1498928790.04,13276,18.06,73652.8,2.65,-22.37,-23.95,0,*74
1498928791.27,13277,18.13,73660.8,2.65,-22.21,-23.79,0,*70
1498928792.5,13278,18.06,73654.3,2.65,-22.31,-23.75,0,*72
1498928793.77,13279,18.06,73656.8,2.67,-22.31,-23.69,0,*7C
1498928795.01,13280,18.13,73660.3,2.65,-22.31,-23.65,0,*74
1498928796.25,13281,18.06,73660.5,2.63,-22.27,-23.69,0,*78
1498928797.5,13282,18.06,73658.8,2.63,-22.27,-23.65,0,*77
1498928798.74,13283,18.13,73660.0,2.63,-22.27,-23.53,0,*73
1498928799.98,13284,18.13,73660.0,2.63,-22.37,-23.65,0,*70
1498928801.23,13285,18.06,73658.8,2.65,-22.21,-23.49,0,*7E
1498928802.48,13286,18.13,73660.0,2.63,-22.27,-23.49,0,*7D
1498928803.75,13287,18.06,73658.8,2.63,-22.21,-23.49,0,*7A
1498928804.99,13288,18.06,73662.3,2.63,-22.21,-23.39,0,*72
1498928806.26,13289,18.13,73668.0,2.63,-22.21,-23.33,0,*79
1498928807.51,13290,18.06,73664.5,2.63,-22.11,-23.33,0,*72
1498928808.77,13291,18.13,73666.0,2.65,-22.17,-23.19,0,*7B
1498928810.01,13292,18.06,73660.8,2.63,-22.07,-23.19,0,*7F
1498928811.25,13293,18.06,73660.5,2.63,-22.11,-23.19,0,*79
1498928812.47,13294,18.06,73658.8,2.63,-22.07,-23.09,0,*78
1498928813.69,13295,18.06,73660.3,2.61,-22.07,-23.03,0,*71
1498928814.91,13296,18.13,73662.3,2.61,-22.11,-23.03,0,*75
1498928816.1,13297,18.06,73660.3,2.61,-22.07,-22.87,0,*7E
1498928817.29,13298,18.13,73666.8,2.61,-22.07,-22.87,0,*71
1498928818.51,13299,18.13,73666.0,2.61,-22.07,-22.77,0,*7F
1498928819.73,13300,18.06,73662.8,2.61,-21.93,-22.73,0,*74
1498928820.95,13301,18.06,73664.5,2.61,-21.97,-22.67,0,*74
1498928822.16,13302,18.13,73666.3,2.61,-21.93,-22.53,0,*74
1498928823.37,13303,18.13,73662.8,2.61,-21.97,-22.41,0,*72
1498928824.57,13304,18.06,73662.5,2.61,-21.93,-22.11,0,*74
1498928825.82,13305,18.06,73662.8,2.59,-21.97,-22.11,0,*7A
1498928827.02,13306,18.13,73664.5,2.61,-21.93,-21.93,0,*7F
1498928828.22,13307,18.06,73666.3,2.61,-21.93,-21.63,0,*71
1498928829.41,13308,18.13,73668.5,2.61,-21.93,-21.43,0,*7C
1498928830.64,13309,18.13,73666.8,2.63,-21.93,-21.17,0,*7E
1498928831.89,13310,18.06,73666.5,2.61,-21.83,-21.03,0,*70
1498928833.12,13311,18.06,73668.0,2.61,-21.83,-20.89,0,*72
1498928834.33,13312,18.06,73664.0,2.61,-21.77,-20.63,0,*7E
1498928835.54,13313,18.06,73664.5,2.61,-21.77,-20.39,0,*70
1498928836.76,13314,18.06,73666.3,2.61,-21.73,-20.19,0,*71
1498928838.01,13315,18.06,73664.3,2.59,-21.77,-19.85,0,*70
1498928839.27,13316,18.13,73666.5,2.59,-21.77,-19.65,0,*7D
1498928840.52,13317,18.06,73666.3,2.59,-21.67,-19.37,0,*7A
1498928841.74,13318,18.06,73660.5,2.61,-21.57,-19.17,0,*7F
1498928842.96,13319,18.06,73660.0,2.61,-21.47,-18.89,0,*79
1498928844.16,13320,18.13,73656.8,2.61,-21.47,-18.49,0,*7F
1498928845.41,13321,18.13,73658.5,2.63,-21.47,-18.35,0,*77
1498928846.61,13322,18.06,73652.8,2.61,-21.43,-17.83,0,*70
1498928847.83,13323,18.06,73660.3,2.61,-21.33,-17.49,0,*70
1498928849.1,13324,18.06,73666.0,2.59,-21.33,-17.21,0,*72
1498928850.35,13325,18.13,73668.0,2.59,-21.23,-16.89,0,*71
1498928851.55,13326,18.13,73668.0,2.61,-21.17,-16.55,0,*7F
1498928852.8,13327,18.13,73666.3,2.61,-21.03,-16.27,0,*7E
1498928854.02,13328,18.06,73664.3,2.59,-20.93,-15.99,0,*74
1498928855.27,13329,18.06,73666.3,2.59,-20.73,-15.57,0,*79
1498928856.47,13330,18.06,73662.0,2.61,-20.63,-15.25,0,*7E
1498928857.74,13331,18.06,73660.5,2.63,-20.35,-14.83,0,*73
1498928858.99,13332,18.06,73664.3,2.61,-20.19,-14.55,0,*77
1498928860.21,13333,18.13,73668.0,2.59,-19.95,-14.29,0,*78
1498928861.43,13334,18.06,73664.3,2.61,-19.71,-13.83,0,*79
1498928862.66,13335,18.06,73668.8,2.61,-19.41,-13.55,0,*70
1498928863.86,13336,18.06,73668.0,2.61,-19.17,-13.19,0,*78
1498928865.06,13337,18.06,73666.3,2.61,-18.79,-13.07,0,*7F
1498928866.29,13338,18.06,73666.5,2.61,-18.65,-12.71,0,*7D
1498928867.52,13339,18.06,73666.0,2.61,-18.35,-12.39,0,*75
1498928868.74,13340,18.06,73666.5,2.61,-18.11,-12.11,0,*77
1498928870.01,13341,18.13,73666.8,2.63,-17.93,-11.85,0,*7F
1498928871.25,13342,18.06,73666.0,2.63,-17.73,-11.59,0,*73
1498928872.5,13343,18.06,73670.0,2.63,-17.49,-11.37,0,*73
1498928873.71,13344,18.06,73668.5,2.63,-17.31,-11.11,0,*7F
1498928874.96,13345,18.13,73674.8,2.63,-17.03,-10.97,0,*70
1498928876.22,13346,18.06,73672.5,2.63,-16.83,-10.63,0,*71
1498928877.44,13347,18.06,73670.0,2.63,-16.59,-10.57,0,*70
1498928878.67,13348,18.06,73666.8,2.63,-16.41,-10.27,0,*71
1498928879.92,13349,18.06,73668.0,2.63,-16.17,-10.05,0,*73
1498928881.16,13350,18.06,73668.8,2.63,-15.99,-9.61,0,*44
1498928882.4,13351,18.06,73672.0,2.63,-15.71,-9.49,0,*49
1498928883.63,13352,18.06,73670.3,2.63,-15.57,-9.31,0,*41
1498928884.87,13353,18.06,73668.0,2.63,-15.29,-9.11,0,*4B
1498928886.08,13354,18.13,73672.8,2.65,-15.11,-8.81,0,*49
1498928887.29,13355,18.06,73666.8,2.65,-14.93,-8.63,0,*4F
1498928888.51,13356,18.06,73668.0,2.65,-14.75,-8.45,0,*40
1498928889.78,13357,18.06,73670.3,2.63,-14.47,-8.11,0,*47
1498928891.0,13358,18.06,73668.8,2.65,-14.19,-7.95,0,*46
1498928892.27,13359,18.13,73672.0,2.67,-13.87,-7.65,0,*4A
1498928893.52,13360,18.06,73670.8,2.67,-13.61,-7.53,0,*4D
1498928894.73,13361,18.06,73666.5,2.67,-13.47,-7.23,0,*4F
1498928895.96,13362,18.06,73668.3,2.67,-13.15,-7.11,0,*4A
1498928897.18,13363,18.06,73670.3,2.67,-12.97,-6.81,0,*48
1498928898.43,13364,18.06,73666.0,2.67,-12.71,-6.59,0,*42
1498928899.65,13365,18.06,73670.8,2.69,-12.43,-6.35,0,*46
1498928900.89,13366,18.06,73668.3,2.67,-12.15,-6.09,0,*47
1498928902.16,13367,18.06,73668.5,2.67,-11.89,-5.89,0,*4B